SCP
1 1 1 1 1 1 0 0 0 0 0 0 0 0 0 0 0 0 0 0 0 0 1 1 1 1 1 1 1 1 1 1 1 1 1 1 1 1 1 1 1 1 2
1 1 1 1 1 1 0 0 0 0 0 0 0 1 1 0 0 0 0 0 0 0 1 1 1 1 1 1 1 1 1 1 1 1 1 1 1 1 1 1 1 1 2
1 1 1 1 1 1 0 0 0 0 0 0 1 1 1 0 0 0 0 0 0 0 0 1 1 1 1 1 1 1 1 1 1 1 1 1 1 1 1 1 1 1 1
1 1 1 1 1 1 0 0 0 0 0 1 1 1 1 1 0 0 0 0 0 0 0 1 1 1 1 1 1 1 1 1 1 1 1 1 1 1 1 1 1 1 1
1 1 2 2 1 1 0 0 0 0 1 1 1 1 1 0 0 0 0 0 0 0 0 0 0 1 1 1 1 1 1 1 1 1 1 1 1 1 1 1 1 1 1
1 1 2 2 1 1 0 0 0 0 1 1 1 0 0 0 0 0 0 0 0 0 0 0 0 0 1 1 1 1 1 1 1 1 1 1 1 1 1 1 1 1 1
1 1 1 2 1 1 0 0 0 0 1 1 0 0 0 0 0 0 0 0 0 0 0 0 0 0 0 0 1 1 1 1 1 1 1 1 1 1 1 1 1 1 1
1 2 2 2 2 1 1 0 0 0 1 0 0 0 0 0 0 0 0 0 0 0 0 0 0 0 0 0 0 0 0 0 0 0 0 0 0 1 1 1 1 1 1
1 2 2 2 2 1 1 0 0 0 0 0 0 0 0 0 0 0 0 0 0 0 0 0 0 0 0 0 0 0 0 0 0 0 0 0 0 0 0 1 1 1 1
1 2 2 2 2 1 1 0 0 0 0 0 0 0 0 0 0 0 0 0 0 0 0 0 0 0 0 0 0 0 0 0 0 0 0 0 0 0 0 0 0 1 1
1 1 2 2 1 1 1 1 0 0 0 0 0 0 0 0 0 0 0 0 0 0 0 0 0 0 0 0 0 0 0 0 0 0 0 0 0 0 0 0 0 0 1
1 1 1 1 1 1 1 1 0 0 0 0 0 0 0 0 0 0 0 0 0 0 0 0 0 0 0 0 0 0 0 0 0 0 0 0 0 0 0 0 0 0 0
0 1 1 1 0 0 0 0 0 0 0 0 0 0 0 0 0 0 0 0 0 0 0 0 0 0 0 0 0 0 0 0 0 0 0 0 0 0 0 0 0 0 0
0 0 0 0 0 0 0 0 0 0 0 0 0 0 0 0 0 0 0 0 0 0 0 0 0 0 0 0 0 0 0 0 0 0 0 0 0 0 0 0 0 0 0
0 0 0 0 0 0 0 0 0 0 0 0 0 0 0 0 0 0 0 0 0 0 0 0 0 0 0 0 0 0 0 0 0 0 0 0 0 0 0 0 0 0 0
0 0 0 0 0 0 0 0 0 0 0 0 0 0 0 0 0 0 0 0 0 0 0 0 0 0 0 0 0 0 0 0 0 0 0 0 0 0 0 0 0 0 0
0 0 0 0 0 0 0 0 0 0 0 0 0 0 0 0 0 0 0 0 0 0 0 0 0 0 0 0 0 0 0 0 0 0 0 0 0 0 0 0 0 0 0
0 0 0 0 0 0 0 0 0 0 0 0 0 0 0 0 0 0 0 0 0 0 0 0 0 0 0 0 0 0 0 0 0 0 0 0 0 0 0 0 0 0 0
0 0 0 0 0 0 0 0 0 0 0 0 0 0 0 0 0 0 0 0 0 0 0 0 0 0 0 0 0 0 0 0 0 0 0 0 0 0 0 0 0 0 0
0 0 0 0 0 0 0 0 0 0 0 0 0 0 0 0 0 0 0 0 0 0 0 0 0 0 0 0 0 0 0 0 0 0 0 0 0 0 0 0 0 0 0
0 0 0 0 0 0 0 0 0 0 0 0 0 0 0 0 0 0 0 0 0 0 0 0 0 0 0 0 0 0 0 0 0 0 0 0 0 0 0 0 0 0 0
0 0 0 0 0 0 0 0 0 0 0 0 0 0 0 0 0 0 0 0 0 0 0 0 0 0 0 0 0 0 0 0 0 0 0 0 0 0 0 0 0 0 0
0 0 0 0 0 0 0 0 0 0 0 0 0 0 0 0 0 0 0 0 0 0 0 0 0 0 0 0 0 0 0 0 0 0 0 0 0 0 0 0 0 0 0
0 0 0 0 0 0 0 0 0 0 0 0 0 0 0 0 0 0 0 0 0 0 0 0 0 0 0 0 0 0 0 0 0 0 0 0 0 0 0 0 0 0 0
0 0 0 0 0 0 0 0 0 0 0 0 0 0 0 0 0 0 0 0 0 0 0 0 0 0 0 0 0 0 0 0 0 0 0 0 0 0 0 0 0 0 0
0 0 0 0 0 0 0 0 0 0 0 0 0 0 0 0 0 0 0 0 0 0 0 0 0 0 0 0 0 0 0 0 0 0 0 0 0 0 0 0 0 0 0
Wind_Speed
2 2 2 2 1 1 1 1 1 1 1 1 1 1 1 0 1 1 1 2 1 1 1 1 1 0 0 0 0 1 1 1 2 2 1 1 1 2 2 1 2 2 2
2 2 2 2 1 1 1 1 1 1 1 1 1 0 0 0 1 1 1 1 1 1 1 2 2 1 1 1 1 0 0 0 0 0 1 1 1 2 2 2 2 2 2
3 2 2 2 2 1 1 1 1 1 1 1 1 0 0 0 0 1 1 1 1 1 1 1 2 2 2 2 2 2 2 1 1 1 2 2 2 2 3 3 3 3 3
2 2 2 2 2 2 2 2 1 1 1 1 1 1 1 0 1 1 1 1 1 1 1 1 2 2 3 3 3 3 3 3 2 2 2 2 3 3 4 4 4 4 4
3 2 2 2 2 2 2 2 2 1 1 1 1 1 1 1 1 1 1 1 1 1 1 1 1 2 3 4 4 3 4 3 3 3 3 3 4 4 5 5 5 5 4
2 2 2 2 2 2 2 2 2 1 1 1 0 0 0 1 1 1 1 0 0 1 1 1 1 1 2 3 4 4 4 4 4 3 4 4 4 5 5 6 6 5 5
3 2 2 2 2 2 2 3 2 2 1 1 1 1 1 1 1 1 1 1 0 1 1 1 1 1 1 3 4 5 5 5 5 5 4 5 5 5 6 7 7 6 6
2 2 3 2 3 2 2 2 2 2 2 2 2 1 0 1 1 1 1 1 1 0 1 1 1 0 0 0 1 4 5 5 5 5 5 5 6 7 7 7 7 7 7
3 2 3 3 3 3 3 3 3 3 2 2 2 2 2 2 1 1 1 1 1 1 1 1 1 1 0 0 0 3 4 5 6 6 5 5 5 6 7 7 7 7 8
3 3 3 3 3 3 3 3 3 2 3 3 1 1 1 2 2 1 2 1 1 1 1 1 1 1 1 1 0 2 4 4 5 5 5 5 5 6 7 7 7 8 9
3 3 3 3 3 3 3 3 3 3 3 3 2 1 1 1 1 2 2 2 2 2 2 2 2 1 1 1 1 2 3 4 4 4 5 5 6 6 7 8 8 9 9
2 3 2 3 3 2 3 3 4 4 3 3 2 2 2 2 2 2 3 2 2 2 2 2 1 1 1 1 1 3 3 4 4 5 5 5 6 6 7 8 9 9 10
2 3 2 3 2 2 2 2 3 3 3 4 3 2 2 2 1 2 2 2 2 2 2 1 2 1 1 1 2 3 4 4 5 5 5 6 6 7 8 9 10 10 10
2 2 3 2 2 2 2 2 2 2 2 3 3 3 2 2 1 2 2 2 2 2 2 3 1 1 1 1 2 3 3 4 5 6 6 7 7 7 8 9 10 10 11
1 2 3 2 2 2 3 3 2 2 2 2 2 3 2 2 1 1 1 2 3 3 4 3 2 1 1 1 2 2 2 4 5 6 7 7 7 8 8 9 10 10 11
0 2 2 3 2 2 2 2 2 2 2 2 2 2 3 2 2 2 2 2 2 3 4 2 2 1 1 2 3 2 3 5 5 6 7 8 9 9 9 9 10 11 11
0 1 1 2 2 2 2 2 2 2 3 2 2 2 3 2 2 2 2 2 2 2 5 3 1 1 1 2 2 2 3 3 3 6 8 9 9 9 9 10 10 11 11
0 1 1 2 2 2 2 2 2 2 3 3 3 2 3 2 2 2 2 3 3 3 4 5 3 1 2 2 2 3 3 3 3 6 8 9 9 9 10 10 10 10 11
1 1 1 1 1 2 2 2 2 3 3 3 3 3 3 2 3 2 2 2 2 3 3 4 3 2 2 2 2 3 3 3 3 5 8 8 9 10 10 11 11 10 10
1 1 0 0 1 1 1 1 2 2 3 3 2 3 3 3 3 3 3 3 2 2 3 3 3 2 2 2 1 2 3 3 4 3 5 6 7 9 10 11 10 9 9
1 1 1 1 0 0 0 1 1 2 2 2 2 2 2 2 2 3 3 3 3 2 2 3 3 3 2 2 2 2 4 3 4 2 3 3 4 4 5 7 8 9 10
2 1 1 1 0 0 1 0 0 1 2 2 1 1 1 1 2 3 4 4 4 4 4 4 4 4 5 4 2 2 3 3 4 2 2 4 3 4 4 3 7 10 10
2 2 1 1 1 1 1 1 1 1 1 2 2 1 1 1 2 2 3 4 4 4 4 4 5 5 5 4 3 3 3 4 5 3 2 4 2 4 4 5 8 10 10
2 2 1 1 1 2 2 1 1 1 1 2 2 2 2 2 2 2 2 3 3 4 4 4 5 5 4 4 4 4 4 4 3 2 2 4 3 3 4 4 7 9 9
2 2 2 2 2 2 3 2 2 1 1 1 2 2 2 2 4 3 3 3 4 4 5 6 7 6 6 5 4 2 2 2 4 3 1 2 2 3 3 4 4 7 8
2 2 2 2 2 2 3 3 3 1 1 1 1 1 2 3 4 4 3 4 5 5 3 4 5 5 5 4 4 3 3 3 3 3 2 1 2 2 4 2 2 3 4
Wind_Direction
148 140 134 132 139 131 143 153 162 151 133 101 76 37 18 58 98 94 95 104 110 144 196 237 223 216 262 278 354 79 77 66 63 46 25 5 357 354 355 343 347 352 349
147 142 140 142 140 141 149 148 160 150 132 121 109 179 203 66 129 148 149 126 121 144 204 226 233 228 247 270 275 291 328 359 12 319 332 338 320 314 309 306 302 304 317
152 150 150 153 155 145 131 132 141 125 137 132 151 216 175 187 167 180 170 152 145 157 189 229 245 245 250 258 267 271 268 263 276 289 307 316 319 321 313 296 288 292 300
155 156 158 163 162 151 148 153 155 160 166 169 198 215 197 196 231 215 189 154 151 145 173 207 252 264 258 258 263 268 272 270 269 279 292 300 304 307 306 297 284 280 284
157 158 159 157 157 153 159 172 160 167 172 185 215 215 204 206 213 219 225 202 164 138 136 155 229 271 267 257 255 264 275 271 278 281 285 288 293 296 299 295 289 288 286
162 160 156 158 161 161 169 168 162 157 162 168 184 285 246 222 204 196 202 196 147 150 161 153 173 259 267 266 263 267 271 267 267 275 281 285 292 297 302 303 295 288 291
161 156 156 165 169 174 179 173 160 157 157 122 84 352 312 242 200 188 170 146 164 177 186 187 188 206 248 257 263 268 269 262 261 267 274 279 285 288 291 297 294 292 292
163 172 162 172 177 175 174 175 161 160 167 154 141 130 316 314 295 233 165 168 199 175 195 216 185 223 219 177 288 273 270 266 270 274 275 279 284 286 288 292 293 294 292
174 173 173 171 177 181 186 186 180 174 174 190 171 158 163 216 282 280 232 201 208 203 219 232 215 222 220 156 305 301 302 284 271 271 277 284 291 295 292 291 295 298 300
172 176 179 181 184 188 193 190 184 186 170 183 204 226 188 161 156 266 291 265 233 229 239 241 232 231 221 206 283 308 306 306 294 287 283 286 294 300 302 296 296 297 296
176 181 180 180 184 190 193 189 187 188 182 184 183 187 212 239 172 181 240 269 283 260 245 232 226 228 223 231 264 308 298 299 300 295 292 290 289 292 296 299 301 301 301
184 186 182 181 186 191 195 195 194 187 191 195 192 184 181 186 191 194 218 230 246 255 250 234 219 217 209 227 265 297 295 300 296 296 297 295 293 292 293 293 295 298 301
192 193 185 189 186 193 194 185 185 190 188 192 197 203 206 216 191 194 210 233 246 254 241 241 227 213 222 232 259 276 281 289 290 293 293 292 292 293 294 293 292 293 295
199 189 186 190 185 184 186 178 180 190 192 197 201 197 203 219 215 208 203 203 255 264 242 241 244 226 242 242 261 259 271 279 283 286 286 287 289 291 290 290 290 292 292
195 181 183 184 188 184 181 172 177 184 187 202 205 197 206 217 220 222 212 195 201 239 253 234 234 253 257 262 267 251 257 278 279 281 285 287 288 289 290 291 291 291 291
162 168 177 178 180 182 174 170 169 173 177 198 202 197 210 213 213 217 218 223 217 224 249 248 229 268 272 279 279 268 259 278 275 283 285 288 288 288 290 292 293 293 293
158 157 161 167 178 180 170 172 181 176 188 200 200 198 218 219 218 221 219 226 232 226 249 267 259 281 267 268 286 285 279 270 275 284 287 288 287 287 292 295 295 294 295
84 122 131 156 176 181 175 181 193 193 198 203 206 203 218 218 225 224 220 228 234 231 236 258 267 266 262 264 274 282 291 294 285 289 285 281 283 287 291 292 294 294 296
52 91 108 153 171 178 182 192 196 199 206 209 205 206 214 207 225 233 232 235 242 248 241 249 263 263 276 290 294 292 289 286 288 288 280 276 280 286 289 288 290 292 293
19 52 90 138 166 171 183 196 199 201 205 209 209 212 212 213 223 225 229 237 239 244 244 248 259 270 275 294 295 284 289 280 286 290 279 286 287 289 288 288 290 291 291
8 5 33 47 57 203 221 207 213 206 200 202 204 207 206 213 230 228 230 227 219 229 242 249 257 266 263 281 266 270 277 290 286 272 283 283 284 282 286 288 289 290 292
9 16 13 11 27 316 328 280 247 222 208 205 218 231 220 215 253 253 252 239 223 221 232 237 247 254 260 259 264 268 281 297 289 279 288 286 277 273 274 270 289 291 290
11 12 11 3 325 305 326 291 256 210 212 225 226 227 251 253 241 253 260 257 252 248 233 231 246 253 262 257 257 262 260 262 265 282 292 285 275 270 275 281 286 286 287
3 354 353 343 329 326 332 328 295 227 219 235 239 231 240 255 254 247 246 255 257 259 252 246 252 260 264 262 242 247 257 269 284 287 271 275 282 282 294 286 285 283 289
343 337 344 346 337 326 328 334 337 269 251 252 249 238 238 251 265 259 251 256 266 272 271 261 262 266 273 279 270 261 260 267 277 273 242 258 294 305 291 275 279 290 300
329 331 334 336 335 334 337 339 339 304 290 292 280 266 259 267 272 262 253 253 262 269 270 274 272 276 276 279 267 243 234 246 267 270 233 243 291 323 304 286 295 306 297